Hourly Data Report for October 02, 2013

All times are specified in Local Standard Time (LST). Add 1 hour to adjust for Daylight Saving Time where and when it is observed.

QIKIQTARJUAQ A
NUNAVUT

67°32'48.000" N
64°01'54.000" W
5.50 m
2400577
YVM

Download Data

Hourly Data (October 2013)
Hourly Data Report for October 2, 2013
Temp Definition
°C
Dew Point Temp Definition
°C
Rel Hum Definition
%
Wind Dir Definition
10's deg

Wind Spd Definition
km/h
Visibility Definition
km
Stn Press Definition
kPa
Hmdx Definition


Wind Chill Definition


Weather Definition


TIME
00:00 Legend Double Dagger -4.4 -7.0 82 15 9 16.1 100.73   -8 LegendNANA
01:00 Legend Double Dagger -5.1 -6.9 87 LegendMM 5 16.1 100.76   -7 LegendNANA
02:00 Legend Double Dagger -4.0 -6.5 83 19 9 16.1 100.79   -8 LegendNANA
03:00 Legend Double Dagger -4.8 -6.8 86 14 9 16.1 100.80   -9 LegendNANA
04:00 Legend Double Dagger -5.0 -7.2 85 14 9 16.1 100.81   -9 LegendNANA
05:00 Legend Double Dagger -5.1 -7.1 86 14 8 16.1 100.82   -9 LegendNANA
06:00 Legend Double Dagger -5.2 -7.4 85 15 5 16.1 100.84   -7 LegendNANA
07:00 Legend Double Dagger -5.7 -7.4 88 12 9 16.1 100.85   -10 LegendNANA
08:00 Legend Double Dagger -5.6 -7.9 84 14 9 16.1 100.86   -10 LegendNANA
09:00 Legend Double Dagger -5.2 -7.7 82 17 5 16.1 100.87   -7 LegendNANA
10:00 Legend Double Dagger -4.0 -6.5 83 17 4 16.1 100.88   -6 LegendNANA
11:00 Legend Double Dagger -3.3 -6.5 79 19 11 16.1 100.87   -8 LegendNANA
12:00 Legend Double Dagger -2.8 -5.8 80 19 13 16.1 100.87   -7 LegendNANA
13:00 Legend Double Dagger -3.7 -6.6 81 14 8 16.1 100.89   -7 LegendNANA
14:00 Legend Double Dagger -4.8 -7.2 84 13 8 16.1 100.89   -8 LegendNANA
15:00 Legend Double Dagger -5.6 -7.8 85 18 4 16.1 100.90   -7 LegendNANA
16:00 Legend Double Dagger -6.0 -8.2 85 17 8 16.1 100.92   -10 LegendNANA
17:00 Legend Double Dagger -6.2 -8.4 84 17 5 16.1 100.94   -9 LegendNANA
18:00 Legend Double Dagger -3.9 -6.8 80 17 5 16.1 100.96   -6 LegendNANA
19:00 Legend Double Dagger -4.5 -7.0 83 15 5 16.1 100.97   -7 LegendNANA
20:00 Legend Double Dagger -3.4 -6.0 82 20 9 16.1 100.97   -7 LegendNANA
21:00 Legend Double Dagger -3.5 -6.0 83 LegendMM 4 16.1 100.98   -5 LegendNANA
22:00 Legend Double Dagger -2.9 -5.9 80 18 11 16.1 100.98   -7 LegendNANA
23:00 Legend Double Dagger -2.8 -6.1 78 18 18 16.1 100.97   -8 LegendNANA

Notes on Data Quality.

Legend

  • E = Estimated
  • M = Missing
  • NA = Not Available
  • ‡ = Partner data that is not subject to review by the National Climate Archives
Date modified: